#timestamp,LO_Frequency,Hit,StdDev 
1689944415.4,286047000.6,N
1689944435.3,286047000.1,N
1689944455.1,286047002.1,N
1689944456.0,286047002.1,N
1689944475.8,286047002.7,N
1689944495.7,286047002.2,N
1689944515.5,286047000.0,N
1689944535.3,286047001.6,N
1689944555.2,286047002.1,N
1689944575.0,286047000.1,N
1689944575.9,286047000.1,N
1689944595.8,286047002.2,N
1689944615.6,286047002.5,N
1689944635.4,286047003.9,N
1689944655.3,286047004.4,N
1689944675.1,286047003.1,N
1689944695.8,286047001.7,N
1689944715.7,286046999.7,N
1689944735.5,286046999.9,N
1689944755.4,286047000.2,N
1689944775.2,286047001.4,N
1689944795.0,286047002.0,N
1689944795.9,286047002.0,N
1689944815.8,286047002.3,N
1689944835.6,286047002.1,N
1689944855.4,286047002.4,N
1689944875.3,286047001.8,N
1689944895.1,286047004.0,N
1689944915.9,286047001.9,N
1689944935.7,286047001.6,N
1689944955.5,286047002.0,N
1689944975.4,286047002.4,N
1689944995.2,286047001.4,N
1689945015.0,286047003.0,N
1689945015.9,286047003.0,N
1689945035.8,286047004.2,Y
1689945055.6,286047001.5,P
1689945075.5,286047002.1,P
1689945095.3,286047002.0,P
1689945115.1,286047004.4,Y
1689945135.9,286047000.5,P
1689945155.7,286046998.2,N
1689945175.6,286046997.1,N
1689945195.4,286046998.3,N
1689945215.2,286046996.9,N
1689945235.1,286046999.3,N
1689945236.0,286046999.3,N
1689945255.8,286047000.9,N
1689945275.6,286046998.3,N
1689945295.5,286046998.9,N
1689945315.3,286046998.9,N
1689945335.2,286046997.4,N
1689945355.9,286046997.4,N
1689945375.7,286046995.5,Y
1689945395.6,286046997.0,P
1689945415.4,286046996.9,P
1689945435.2,286046997.8,N
1689945455.1,286046995.1,Y
1689945456.0,286046995.1,P
1689945475.8,286046998.8,N
1689945495.7,286046998.3,N
1689945515.5,286046998.9,N
1689945535.3,286047000.8,N
1689945555.2,286047000.1,N
1689945575.0,286047000.2,N
1689945575.9,286047000.2,N
1689945595.7,286047000.7,N
1689945615.6,286047001.2,N
1689945635.4,286047001.2,N
1689945655.3,286047000.2,N
1689945675.1,286047001.1,N
1689945676.0,286047001.1,N
1689945695.8,286046998.1,N
1689945715.7,286046998.3,N
1689945735.5,286047000.8,N
1689945755.3,286047000.5,N
1689945775.2,286047004.2,N
1689945795.0,286047002.2,N
1689945795.9,286047002.2,N
1689945815.8,286047000.2,N
1689945835.6,286047000.5,N
1689945855.4,286047001.6,N
1689945875.3,286047002.1,N
1689945895.1,286047002.3,N
1689945915.8,286047000.5,N
1689945935.7,286047001.7,N
1689945955.5,286047005.7,Y
1689945975.4,286047005.5,P
1689945995.2,286047005.1,N
1689946015.0,286047007.2,P
1689946015.9,286047007.2,N
1689946035.8,286047007.6,Y
1689946055.6,286047000.1,P
1689946075.5,286047002.5,N
1689946095.3,286047002.8,N
1689946115.1,286047002.4,N
1689946135.9,286047001.8,N
1689946155.7,286047002.3,N
1689946175.5,286047001.7,N
1689946195.4,286046999.7,N
1689946215.2,286047002.4,N
1689946235.1,286047003.8,N
1689946236.0,286047003.8,N
1689946255.8,286047000.1,N
1689946275.6,286046998.2,N
1689946295.5,286046998.9,N
1689946315.3,286046996.5,N
1689946335.1,286046999.5,N
1689946355.9,286046997.6,N
1689946375.7,286046997.8,N
1689946395.6,286046997.9,N
1689946415.4,286046995.0,N
1689946435.2,286046995.0,N
1689946455.1,286046994.9,N
1689946456.0,286046994.9,N
1689946475.8,286046995.6,N
1689946495.6,286046994.9,N
1689946515.5,286046997.7,N
1689946535.3,286046996.8,N
1689946555.2,286046995.1,N
1689946575.9,286046995.4,N
1689946595.7,286046995.7,N
1689946615.6,286046995.1,N
1689946635.4,286046995.5,N
1689946655.2,286046996.0,N
1689946675.1,286046996.2,N
1689946676.0,286046996.2,N
1689946695.8,286046996.2,N
1689946715.7,286046995.6,N
1689946735.5,286046995.5,N
1689946755.3,286046995.1,N
1689946775.2,286046995.2,N
1689946795.0,286046995.1,N
1689946795.9,286046995.1,Y
1689946815.7,286047001.1,P
1689946835.6,286047001.9,N
1689946855.4,286047001.4,N
1689946875.3,286047002.0,N
1689946895.1,286047002.8,N
1689946896.0,286047002.8,N
1689946915.8,286047000.0,N
1689946935.7,286047001.5,N
1689946955.5,286047001.3,N
1689946975.4,286047001.5,N
1689946995.2,286047002.4,N
1689947015.0,286047002.7,N
1689947015.9,286047002.7,N
1689947035.8,286046999.8,N
1689947055.6,286047000.4,N
1689947075.4,286047002.6,N
1689947095.3,286047002.5,N
1689947145.1,286047002.1,E
1689947155.1,286047000.0,N
1689947156.0,286047000.0,P
1689947175.8,286047000.3,P
1689947195.7,286047002.3,Y
1689947215.5,286046999.8,P
1689947235.3,286047002.7,P
1689947255.2,286046999.7,N
1689947275.0,286046998.2,N
1689947275.9,286046998.2,N
1689947295.7,286046998.1,N
1689947315.6,286046999.0,N
1689947335.4,286046999.4,N
1689947355.3,286046999.0,N
1689947375.1,286047000.5,N
1689947376.0,286047000.5,N
1689947395.8,286046999.9,N
1689947415.7,286047001.6,N
1689947435.5,286047001.4,N
1689947455.3,286047002.2,N
1689947475.2,286047004.3,Y
1689947495.0,286047003.7,P
1689947495.9,286047003.7,N
1689947515.8,286047004.2,N
1689947535.6,286047003.0,N
1689947555.4,286047004.7,Y
1689947575.3,286047003.9,P
1689947595.1,286047004.0,P
1689947615.9,286047002.3,P
1689947635.7,286047000.4,N
1689947655.5,286047000.0,N
1689947675.4,286046999.7,N
1689947695.2,286047000.8,N
1689947715.0,286046998.3,N
1689947715.9,286046998.3,N
1689947735.8,286046997.0,N
1689947755.6,286046997.9,N
1689947775.5,286046995.5,N
1689947795.3,286046997.6,N
1689947815.1,286046996.5,N
1689947835.9,286046999.0,N
1689947855.7,286046998.7,N
1689947875.5,286047000.6,N
1689947895.4,286047000.2,N
1689947915.2,286046999.9,N
1689947935.1,286047000.1,N
1689947936.0,286047000.1,N
1689947955.8,286046999.9,N
1689947975.6,286047002.5,N
1689947995.5,286047001.8,N
